Location: Cabeza Gorda
(40.0667°N, 4.9667°W)
Time: 19:29:36
(UTC+00:00)

DMSP B5D1-3 - Pass Details

Date: 15 January 2026
Orbit: 758 x 772 km, 98.5° (Epoch: 10 February)

Event Time Altitude Azimuth Distance (km) Brightness Sun altitude
Rises 06:15:40 0° 165° (SSE) 3,213 8.1 -15.9°
Reaches altitude 10° 06:17:58 10° 165° (SSE) 2,289 7.3 -15.5°
Maximum altitude 06:23:01 90° 250° (WSW) 767 4.5 -14.5°
Drops below altitude 10° 06:28:05 10° 347° (NNW) 2,298 6.7 -13.6°
Sets 06:30:24 0° 347° (NNW) 3,227 7.4 -13.2°
